FW7659 Weather Reports


time (UTC)temp
C
wind
direction
speed
KPH
gust
KPH
rain 1hr
cm
rain 24hr
cm
rain mn
cm
humidity
%
barometer
mb
20260906113404 25 36 0.0 3.2 0.00 0.00 0.00 74 1012.9
20260906112904 25 36 0.0 3.2 0.00 0.00 0.00 73 1013.0
20260906112403 25 36 0.0 1.6 0.00 0.00 0.00 73 1012.8
20260906111904 25 68 0.0 3.2 0.00 0.00 0.00 72 1012.8
20260906111403 25 20 0.0 0.0 0.00 0.00 0.00 72 1012.8
20260906110903 25 20 1.6 3.2 0.00 0.00 0.00 72 1012.8
20260906110403 25 10 0.0 3.2 0.00 0.00 0.00 72 1012.9
20260906104404 24 96 0.0 0.0 0.00 0.00 0.00 73 1012.7
20260906103904 24 96 0.0 0.0 0.00 0.00 0.00 73 1012.7
20260906103404 24 96 0.0 0.0 0.00 0.00 0.00 73 1012.7
20260906102903 25 96 0.0 0.0 0.00 0.00 0.00 73 1012.7
20260906102403 25 96 0.0 0.0 0.00 0.00 0.00 73 1012.8
20260906101903 24 102 0.0 0.0 0.00 0.00 0.00 73 1012.7
20260906101403 24 102 0.0 0.0 0.00 0.00 0.00 73 1012.8
20260906100904 24 102 0.0 0.0 0.00 0.00 0.00 72 1012.7
20260906095404 25 44 0.0 0.0 0.00 0.00 0.00 72 1012.6
20260906093904 24 39 0.0 0.0 0.00 0.00 0.00 73 1012.6
20260906093404 24 86 0.0 0.0 0.00 0.00 0.00 73 1012.8
20260906092405 24 77 0.0 0.0 0.00 0.00 0.00 73 1012.8
20260906091403 24 77 0.0 0.0 0.00 0.00 0.00 72 1012.7
20260906090904 24 77 0.0 0.0 0.00 0.00 0.00 72 1012.7
20260906090404 24 77 0.0 0.0 0.00 0.00 0.00 71 1012.7
20260906085404 24 77 0.0 0.0 0.00 0.00 0.00 73 1012.5
20260906084904 24 77 0.0 0.0 0.00 0.00 0.00 71 1012.5
20260906083904 24 77 0.0 0.0 0.00 0.00 0.00 72 1012.4
20260906082903 24 77 0.0 0.0 0.00 0.00 0.00 70 1012.5
20260906082404 24 77 0.0 0.0 0.00 0.00 0.00 71 1012.6
20260906081905 24 77 0.0 0.0 0.00 0.00 0.00 71 1012.5
20260906081403 24 77 0.0 0.0 0.00 0.00 0.00 71 1012.5
20260906080904 24 77 0.0 0.0 0.00 0.00 0.00 72 1012.4
20260906080404 24 77 0.0 0.0 0.00 0.00 0.00 72 1012.4
20260906075904 24 77 0.0 0.0 0.00 0.00 0.00 72 1012.4
20260906075404 24 77 0.0 0.0 0.00 0.00 0.00 72 1012.4
20260906074903 24 77 0.0 0.0 0.00 0.00 0.00 72 1012.4
20260906074404 24 77 0.0 0.0 0.00 0.00 0.00 72 1012.4
20260906073904 24 77 0.0 0.0 0.00 0.00 0.00 71 1012.4
20260906073403 25 77 0.0 0.0 0.00 0.00 0.00 71 1012.4
20260906071404 25 77 0.0 0.0 0.00 0.00 0.00 71 1012.6
20260906070904 25 77 0.0 0.0 0.00 0.00 0.00 71 1012.6
20260906070404 24 77 0.0 0.0 0.00 0.00 0.00 72 1012.7
20260906065404 25 77 0.0 0.0 0.00 0.00 0.00 71 1012.6
20260906064904 25 77 0.0 0.0 0.00 0.00 0.00 70 1012.6
20260906064404 25 77 0.0 0.0 0.00 0.00 0.00 69 1012.5
20260906063903 25 77 0.0 0.0 0.00 0.00 0.00 68 1012.5
20260906062904 25 77 0.0 0.0 0.00 0.00 0.00 67 1012.6
20260906062404 25 76 0.0 0.0 0.00 0.00 0.00 67 1012.5
20260906061904 25 70 0.0 0.0 0.00 0.00 0.00 67 1012.6
20260906061404 25 70 0.0 0.0 0.00 0.00 0.00 68 1012.8
20260906060903 25 70 0.0 0.0 0.00 0.00 0.00 68 1012.9
20260906060404 25 70 0.0 0.0 0.00 0.00 0.00 69 1013.0
20260906055904 25 70 0.0 0.0 0.00 0.00 0.00 69 1013.1
20260906054904 25 70 0.0 0.0 0.00 0.00 0.00 70 1013.1
20260906054403 25 70 0.0 0.0 0.00 0.00 0.00 71 1013.3
20260906053404 25 67 0.0 0.0 0.00 0.00 0.00 71 1013.5
20260906052904 24 47 0.0 0.0 0.00 0.00 0.00 72 1013.4
20260906052404 24 47 0.0 0.0 0.00 0.00 0.00 72 1013.5
20260906051904 24 47 0.0 0.0 0.00 0.00 0.00 72 1013.5
20260906050404 23 45 0.0 0.0 0.00 0.00 0.00 76 1013.6
20260906045904 23 45 0.0 0.0 0.00 0.00 0.00 77 1013.6
20260906045404 23 45 0.0 0.0 0.00 0.00 0.00 78 1013.6
20260906044904 23 45 0.0 0.0 0.00 0.00 0.00 76 1013.7
20260906044404 23 17 0.0 0.0 0.00 0.00 0.00 76 1013.8
20260906043904 23 17 0.0 0.0 0.00 0.00 0.00 77 1013.8
20260906043404 23 17 0.0 0.0 0.00 0.00 0.00 77 1013.8
20260906042904 23 17 0.0 0.0 0.00 0.00 0.00 79 1013.8
20260906042404 23 17 0.0 0.0 0.00 0.00 0.00 79 1013.7
20260906041904 23 17 0.0 0.0 0.00 0.00 0.00 81 1013.7
20260906041404 23 17 0.0 0.0 0.00 0.00 0.00 81 1013.8
20260906040904 23 17 0.0 0.0 0.00 0.00 0.00 81 1013.8
20260906040404 23 17 0.0 0.0 0.00 0.00 0.00 81 1013.7
20260906035904 23 17 0.0 0.0 0.00 0.00 0.00 82 1013.7
20260906035403 23 17 0.0 0.0 0.00 0.00 0.00 82 1013.7
20260906034904 23 17 0.0 0.0 0.00 0.00 0.00 81 1013.7
20260906033904 23 17 0.0 0.0 0.00 0.00 0.00 82 1013.7
20260906032903 23 17 0.0 0.0 0.00 0.00 0.00 81 1013.9
20260906032404 24 26 0.0 0.0 0.00 0.00 0.00 78 1013.8
20260906031904 23 142 0.0 0.0 0.00 0.00 0.00 79 1013.8
20260906031404 23 142 0.0 0.0 0.00 0.00 0.00 79 1013.8
20260906030903 23 142 0.0 0.0 0.00 0.00 0.00 80 1013.7
20260906030404 23 142 0.0 0.0 0.00 0.00 0.00 80 1013.8
20260906025904 23 142 0.0 0.0 0.00 0.00 0.00 81 1013.9
20260906025403 23 142 0.0 0.0 0.00 0.00 0.00 81 1014.0
20260906024904 23 142 0.0 0.0 0.00 0.00 0.00 81 1014.1
20260906024403 24 142 0.0 0.0 0.00 0.00 0.00 81 1014.2
20260906023904 24 142 0.0 0.0 0.00 0.00 0.00 81 1014.2
20260906023404 24 88 0.0 0.0 0.00 0.00 0.00 79 1014.3
20260906022903 25 91 0.0 0.0 0.00 0.00 0.00 79 1014.2
20260906022404 25 91 0.0 0.0 0.00 0.00 0.00 78 1014.2
20260906021904 25 91 0.0 0.0 0.00 0.00 0.00 77 1014.1
20260906021403 25 91 0.0 0.0 0.00 0.00 0.00 77 1014.1
20260906015904 25 91 0.0 0.0 0.00 0.00 0.00 75 1014.0
20260906015404 26 91 0.0 0.0 0.00 0.00 0.00 74 1013.9
20260906013904 25 91 0.0 0.0 0.00 0.00 0.00 73 1013.8
20260906013403 25 91 0.0 0.0 0.00 0.00 0.00 75 1013.7
20260906012904 25 91 0.0 0.0 0.00 0.00 0.00 74 1013.6
20260906012404 25 91 0.0 0.0 0.00 0.00 0.00 74 1013.4
20260906011904 25 91 0.0 0.0 0.00 0.00 0.00 74 1013.2
20260906011403 25 88 0.0 0.0 0.00 0.00 0.00 74 1013.2
20260906010903 25 86 0.0 0.0 0.00 0.00 0.00 75 1013.0
20260906010404 25 86 0.0 0.0 0.00 0.00 0.00 76 1012.7
20260906005903 25 86 0.0 0.0 0.00 0.00 0.00 74 1012.7
20260906005404 26 86 0.0 0.0 0.00 0.00 0.00 72 1012.8
20260906004403 26 88 0.0 0.0 0.00 0.00 0.00 71 1012.5
20260906003904 26 88 0.0 0.0 0.00 0.00 0.00 74 1012.4
20260906003404 25 88 0.0 0.0 0.00 0.00 0.00 74 1012.3
20260906002903 25 88 0.0 0.0 0.00 0.00 0.00 77 1012.3
20260906002403 25 88 0.0 0.0 0.00 0.00 0.00 79 1012.3
20260906001904 25 88 0.0 0.0 0.00 0.00 0.00 78 1012.2
20260906000904 26 104 0.0 0.0 0.00 0.00 0.00 77 1012.0
20260905235904 26 182 0.0 0.0 0.00 0.00 0.00 76 1011.9
20260905235403 26 182 0.0 0.0 0.00 0.00 0.00 76 1011.8
20260905234904 26 182 0.0 0.0 0.00 0.00 0.00 75 1011.9
20260905233904 26 182 0.0 0.0 0.00 0.00 0.00 74 1012.2
20260905233404 26 182 0.0 0.0 0.00 0.00 0.00 74 1012.4
20260905232903 26 182 0.0 0.0 0.00 0.00 0.00 73 1012.5
20260905232404 26 182 0.0 0.0 0.00 0.00 0.00 72 1012.6
20260905231903 26 182 0.0 0.0 0.00 0.00 0.00 72 1012.7
20260905231404 26 182 0.0 0.0 0.00 0.00 0.00 71 1012.8
20260905230904 26 182 0.0 0.0 0.00 0.00 0.00 72 1012.7
20260905225904 27 182 0.0 0.0 0.00 0.00 0.00 71 1012.5
20260905225404 27 182 0.0 0.0 0.00 0.00 0.00 73 1012.6
20260905224404 27 183 0.0 0.0 0.00 0.00 0.00 72 1012.5
20260905223904 27 183 0.0 0.0 0.00 0.00 0.00 71 1012.6
20260905223404 27 183 0.0 0.0 0.00 0.00 0.00 70 1012.7
20260905222904 27 103 0.0 0.0 0.00 0.00 0.00 72 1012.8
20260905221904 27 96 0.0 0.0 0.00 0.00 0.00 69 1012.7
20260905221403 27 96 0.0 0.0 0.00 0.00 0.00 68 1012.7
20260905220403 28 274 0.0 3.2 0.00 0.00 0.00 69 1012.5
20260905215904 28 280 1.6 4.8 0.00 0.00 0.00 66 1012.3
20260905215403 28 342 1.6 3.2 0.00 0.00 0.00 65 1012.1
20260905214904 28 12 1.6 3.2 0.00 0.00 0.00 66 1012.0
20260905213905 28 12 1.6 3.2 0.00 0.00 0.00 68 1011.8
20260905213404 28 260 1.6 4.8 0.00 0.00 0.00 68 1011.8
20260905211904 28 17 0.0 3.2 0.00 0.00 0.00 66 1012.0
20260905211403 29 29 1.6 4.8 0.00 0.00 0.00 65 1012.1
20260905210903 30 359 1.6 4.8 0.00 0.00 0.00 65 1012.2
20260905205904 30 50 1.6 4.8 0.00 0.00 0.00 63 1012.2
20260905204903 30 51 0.0 3.2 0.00 0.00 0.00 59 1012.2
20260905204404 31 53 0.0 3.2 0.00 0.00 0.00 58 1011.9
20260905203904 31 114 0.0 3.2 0.00 0.00 0.00 54 1011.9
20260905203404 31 38 0.0 3.2 0.00 0.00 0.00 56 1011.8
20260905202903 31 27 1.6 3.2 0.00 0.00 0.00 57 1011.9
20260905202404 31 25 1.6 1.6 0.00 0.00 0.00 60 1012.0
20260905201903 31 11 0.0 1.6 0.00 0.00 0.00 60 1012.3
20260905201404 31 102 1.6 3.2 0.00 0.00 0.00 61 1012.5
20260905200903 31 96 0.0 3.2 0.00 0.00 0.00 60 1012.4
20260905200403 31 84 0.0 3.2 0.00 0.00 0.00 61 1012.3
20260905195904 31 49 0.0 3.2 0.00 0.00 0.00 61 1012.3
20260905195403 31 49 0.0 1.6 0.00 0.00 0.00 58 1012.3
20260905194904 31 52 0.0 4.8 0.00 0.00 0.00 59 1012.3
20260905194404 31 349 0.0 3.2 0.00 0.00 0.00 59 1012.3
20260905193904 31 50 1.6 3.2 0.00 0.00 0.00 59 1012.3
20260905192904 31 32 0.0 3.2 0.00 0.00 0.00 56 1012.5
20260905191404 32 49 1.6 3.2 0.00 0.00 0.00 61 1012.8
20260905190904 32 98 0.0 3.2 0.00 0.00 0.00 57 1012.8
20260905190404 32 318 0.0 1.6 0.00 0.00 0.00 56 1012.8
20260905185904 32 276 0.0 1.6 0.00 0.00 0.00 53 1012.9
20260905185404 33 51 1.6 3.2 0.00 0.00 0.00 55 1012.9
20260905184403 32 33 1.6 3.2 0.00 0.00 0.00 55 1012.8
20260905183904 33 67 0.0 3.2 0.00 0.00 0.00 54 1012.9
20260905183403 33 34 0.0 4.8 0.00 0.00 0.00 58 1012.9
20260905182904 33 267 1.6 4.8 0.00 0.00 0.00 53 1012.9
20260905182404 33 1 0.0 3.2 0.00 0.00 0.00 55 1013.1
20260905181904 33 1 0.0 3.2 0.00 0.00 0.00 54 1013.1
20260905181404 33 340 0.0 1.6 0.00 0.00 0.00 55 1013.3
20260905180903 32 291 0.0 4.8 0.00 0.00 0.00 57 1013.4
20260905180404 33 37 1.6 4.8 0.00 0.00 0.00 57 1013.5
20260905175904 32 307 0.0 1.6 0.00 0.00 0.00 58 1013.6
20260905175404 32 356 1.6 3.2 0.00 0.00 0.00 56 1013.6
20260905174904 32 31 1.6 3.2 0.00 0.00 0.00 56 1013.7
20260905174404 32 19 1.6 3.2 0.00 0.00 0.00 57 1013.7
20260905173404 33 209 0.0 3.2 0.00 0.00 0.00 58 1013.8
20260905172903 32 307 0.0 3.2 0.00 0.00 0.00 60 1013.9
20260905172404 32 307 0.0 1.6 0.00 0.00 0.00 59 1013.9
20260905171904 32 345 0.0 3.2 0.00 0.00 0.00 59 1013.9
20260905171403 32 344 1.6 1.6 0.00 0.00 0.00 61 1014.0
20260905170904 32 318 0.0 1.6 0.00 0.00 0.00 61 1014.1
20260905170404 32 342 0.0 3.2 0.00 0.00 0.00 59 1014.1
20260905165404 32 7 0.0 3.2 0.00 0.00 0.00 63 1014.2
20260905164904 32 159 1.6 3.2 0.00 0.00 0.00 62 1014.2
20260905164404 31 6 0.0 4.8 0.00 0.00 0.00 62 1014.2
20260905163904 31 323 1.6 4.8 0.00 0.00 0.00 64 1014.2
20260905163403 31 356 1.6 3.2 0.00 0.00 0.00 62 1014.4
20260905162403 31 336 0.0 3.2 0.00 0.00 0.00 63 1014.5
20260905161904 31 289 1.6 3.2 0.00 0.00 0.00 64 1014.6
20260905161404 31 10 0.0 3.2 0.00 0.00 0.00 66 1014.7
20260905160903 31 55 0.0 3.2 0.00 0.00 0.00 66 1014.8
20260905160404 31 68 0.0 3.2 0.00 0.00 0.00 66 1014.9
20260905155904 31 33 0.0 1.6 0.00 0.00 0.00 66 1014.9
20260905155404 31 36 0.0 3.2 0.00 0.00 0.00 68 1014.9
20260905154903 30 33 1.6 3.2 0.00 0.00 0.00 67 1015.0
20260905153904 30 14 1.6 3.2 0.00 0.00 0.00 66 1015.1
20260905153404 30 323 1.6 4.8 0.00 0.00 0.00 67 1015.1
20260905152904 30 339 1.6 3.2 0.00 0.00 0.00 66 1015.1
20260905152403 30 24 1.6 4.8 0.00 0.00 0.00 67 1015.1
20260905151904 30 294 0.0 4.8 0.00 0.00 0.00 66 1015.1
20260905151404 30 181 0.0 1.6 0.00 0.00 0.00 69 1015.1
20260905150904 30 355 0.0 3.2 0.00 0.00 0.00 69 1015.1
20260905150404 30 355 1.6 3.2 0.00 0.00 0.00 69 1015.1
20260905145904 30 49 1.6 3.2 0.00 0.00 0.00 70 1015.1
20260905145404 30 14 1.6 3.2 0.00 0.00 0.00 68 1015.1
20260905144904 30 322 1.6 1.6 0.00 0.00 0.00 70 1015.1
20260905143904 29 36 0.0 3.2 0.00 0.00 0.00 72 1015.2
20260905143403 28 44 0.0 1.6 0.00 0.00 0.00 75 1015.3
20260905142905 28 57 0.0 1.6 0.00 0.00 0.00 76 1015.2
20260905142404 28 24 0.0 1.6 0.00 0.00 0.00 75 1015.2
20260905141904 28 24 0.0 3.2 0.00 0.00 0.00 77 1015.2
20260905140904 27 89 0.0 3.2 0.00 0.00 0.00 75 1015.3
20260905135904 27 89 0.0 1.6 0.00 0.00 0.00 79 1015.3
20260905134904 27 89 0.0 3.2 0.00 0.00 0.00 80 1015.5
20260905134404 27 89 0.0 3.2 0.00 0.00 0.00 81 1015.5
20260905133903 27 89 0.0 3.2 0.00 0.00 0.00 80 1015.5
20260905133404 26 89 0.0 0.0 0.00 0.00 0.00 80 1015.6
20260905132904 26 89 0.0 0.0 0.00 0.00 0.00 80 1015.6
20260905131904 26 89 0.0 0.0 0.00 0.00 0.00 80 1015.6
20260905131403 26 89 0.0 0.0 0.00 0.00 0.00 79 1015.6
20260905130903 26 89 0.0 0.0 0.00 0.00 0.00 76 1015.6
20260905125904 26 89 0.0 1.6 0.00 0.00 0.00 76 1015.7
20260905125404 26 89 0.0 1.6 0.00 0.00 0.00 76 1015.7
20260905124904 26 89 0.0 0.0 0.00 0.00 0.00 76 1015.7
20260905123404 26 89 0.0 3.2 0.00 0.00 0.00 76 1015.6
20260905122904 26 89 0.0 0.0 0.00 0.00 0.00 76 1015.6
20260905122404 25 89 0.0 3.2 0.00 0.00 0.00 76 1015.5
20260905121903 25 89 0.0 0.0 0.00 0.00 0.00 76 1015.6
20260905121404 25 89 0.0 3.2 0.00 0.00 0.00 76 1015.5
20260905120903 25 109 0.0 3.2 0.00 0.00 0.00 76 1015.4
20260905120404 25 109 0.0 0.0 0.00 0.00 0.00 76 1015.4
20260905115904 25 109 0.0 0.0 0.00 0.00 0.00 76 1015.3
20260905115404 25 109 0.0 0.0 0.00 0.00 0.00 76 1015.3
20260905114403 25 109 0.0 0.0 0.00 0.00 0.00 76 1015.2
20260905113904 25 109 0.0 0.0 0.00 0.00 0.00 75 1015.1